650  
ASUS44 KLCH 160810  
RWRLCH  
REGIONAL WEATHER ROUNDUP  
NATIONAL WEATHER SERVICE LAKE CHARLES LA  
300 AM CDT THU AUG 16 2018  
 
NOTE: "FAIR" INDICATES FEW OR NO CLOUDS BELOW 12,000 FEET WITH NO  
SIGNIFICANT WEATHER AND/OR S TO VISIBILITY
.  
 
ACROSS SOUTHEAST TEXAS  
 
CITY SKY/WX TMP DP RH WIND PRES REMARKS
 
BEAUMONT FAIR 79 75 87 S3 30.00S  
BEAUMONT CITY FAIR 78 75 90 CALM 30.01S  
ORANGE FAIR 80 78 92 SW3 30.02S  
JASPER FAIR 75 74 97 CALM 30.03S  

 
 
ACROSS CENTRAL LOUISIANA  
 
CITY SKY/WX TMP DP RH WIND PRES REMARKS
 
LEESVILLE FAIR 77 74 91 CALM 30.01S  
FULLERTON FAIR 75 75 100 CALM 30.00S  
ALEXANDRIA INT FAIR 76 74 93 S3 30.00S  
ESLER FIELD FAIR 73 73 100 CALM 30.02S  
DERIDDER FAIR 77 76 95 CALM 30.04S FOG  
OAKDALE FAIR 73 71 95 CALM 30.02S FOG  
OPELOUSAS FAIR 75 73 95 CALM 30.02S  

 
 
ACROSS SOUTHWEST AND SOUTH CENTRAL LOUISIANA  
 
CITY SKY/WX TMP DP RH WIND PRES REMARKS
 
SULPHUR FAIR 78 76 93 CALM 30.02R  
LAKE CHARLES FAIR 80 76 87 CALM 30.01S  
CHENNAULT INT FAIR 76 75 96 CALM 30.02R  
CAMERON PHI CLOUDY 84 77 79 SW7G13 30.00R  
DEQUINCY FAIR 74 72 95 CALM 30.02R  
JENNINGS FAIR 77 75 93 CALM 30.02S  
LAFAYETTE FAIR 78 77 96 CALM 30.02S  
NEW IBERIA FAIR 78 74 87 CALM 30.03S  
ABBEVILLE FAIR 75 75 100 CALM 30.02S  
PATTERSON N/A 78 77 96 CALM 30.03  
SALT POINT N/A N/A N/A N/A CALM 30.00S  

 
 
SELECTED SITES ACROSS THE REGION  
 
CITY SKY/WX TMP DP RH WIND PRES REMARKS
 
HOUSTON BUSH FAIR 81 77 88 S3 29.99S  
HOUSTON HOBBY FAIR 80 79 96 S5 29.99S  
GALVESTON FAIR 84 77 79 S12 30.00S  
COLLEGE STAT PTCLDY 79 76 90 S7 30.00R  
CONROE PTCLDY 79 78 97 S5 30.00S  
HUNTSVILLE CLEAR 80 75 84 S6 30.00R  
LUFKIN CLOUDY 77 75 93 S6 29.99S  
SHREVEPORT FAIR 81 75 82 SW7 29.98S  
MONROE FAIR 78 74 87 S5 30.00S  
NATCHEZ MS FAIR 76 73 91 S5 30.03F  
BATON ROUGE FAIR 75 73 93 NE3 30.03S  
N.O. INTL ARPT FAIR 80 78 94 S3 30.03S  
SLIDELL FAIR 75 72 90 CALM 30.03S  

 
 
MARINE REPORTS  
 
STATION/POSITION TIME SKY/WX TEMP WIND PRES VSBY
 
AIR SEA DIR/SP/G  
(UTC) (F) (DEG/KT/KT) (MB) (MI)  
BUOY 30 S HIGH I NOT AVBL  
SEA RIM ST PARK 0800 83 170/ 10/ 13 1016.4F  
PORT ARTHUR 0736 81 87 200/ 4/ 5 1016.3S  
SABINE PASS N 0736 83 92 200/ 7/ 10 1017.6F  
TEXAS POINT NOT AVBL  
CALCASIEU PASS 0748 85 87 220/ 12/ 14 1015.3S  
LK CHARLES BEACH 0736 80 89 1015.9S  
MARSH ISLAND 0700 86 N/A  
FRESH WATER LOCK 0748 83 90 200/ 6/ 7 1016.4F  
AMERADA PASS 0748 84 89 CALM / 2 1016.7R  

 
 
 
CLICK HERE TO GO TO PREVIOUS BULLETINS.

The Nexlab LA Page
The Nexlab TX Page Main Text Page